Location: Bowman Observatory
(41.0326°N, 73.6210°W)
Time: 18:25:03
(UTC-04:00)

Cosmos 2298 Rocket - Visible Passes

Search period start: 22 October 2014 00:00
Search period end: 01 November 2014 00:00
Orbit: 776 x 785 km, 74.0° (Epoch: 22 October)

Date Brightness Start Highest point End Pass type
(mag) Time Alt. Az. Time Alt. Az. Time Alt. Az.
22 Oct 6.7 19:08:16 10° W 19:11:31 16° NW 19:14:47 10° NNW visible
23 Oct 6.3 18:33:43 10° WSW 18:37:57 24° WNW 18:42:14 10° N visible
26 Oct 6.8 18:38:43 10° WNW 18:40:57 13° NW 18:43:11 10° NNW visible
